Regional Weather Roundup
Issued by NWS Bismarck, ND

Home | Current Version | Previous Version | Text Only | Print | Product List | Glossary On
Versions: 1 2 3 4 5 6 7 8 9 10 11 12 13 14 15 16 17 18 19 20 21 22 23 24 25 26 27 28 29 30 31 32 33 34 35 36 37 38 39 40 41 42 43 44 45 46 47 48 49 50
000
ASUS43 KBIS 031210
RWRBIS

NWR BROADCAST TEXT
NATIONAL WEATHER SERVICE BISMARCK ND
700 AM CDT THU SEP 03 2015

NOTE: "FAIR" INDICATES FEW OR NO CLOUDS BELOW 12,000 FEET WITH NO
SIGNIFICANT WEATHER AND/OR OBSTRUCTIONS TO VISIBILITY.


CITY           SKY/WX    TMP DP  RH WIND       PRES   REMARKS
WILLISTON      CLEAR     67  51  56 N15       29.68R
MINOT          FOG       66  65  96 E6        29.64F VSB 3/4
MINOT AFB      FOG       67  67 100 E7        29.66R VSB 1
BISMARCK       CLEAR     67  67 100 E9        29.68S FOG
DICKINSON      CLEAR     62  56  80 SW10      29.66S
GARRISON         N/A     68  30  24 E7        29.66S
HETTINGER ARPT CLEAR     55  53  93 CALM      29.71F
JAMESTOWN      CLOUDY    73  70  90 SE14      29.74F FOG
CROSBY         FAIR      59  50  72 NW10      29.70R
HARVEY         CLOUDY    72  72 100 SE13      29.70R FOG
HAZEN          FOG       66  66 100 NE3       29.67R VSB<1/4
LINTON         FAIR      66  66 100 E9        29.70S FOG
OAKES            N/A     68  68 100 E9        29.77R FOG
RUGBY          CLOUDY    73  73 100 SE14      29.70S
STANLEY        FAIR      64  64 100 VRB5      29.69S
$$

CITY           SKY/WX    TMP DP  RH WIND       PRES   REMARKS
GRAND FORKS    CLOUDY    71  70  96 SE16      29.77S FOG
GRAND FORKS AF CLOUDY    70  70 100 SE12      29.77F FOG
DEVILS LAKE    CLOUDY    72  64  78 SE14      29.73S
FARGO          CLOUDY    73  69  87 SE13G26   29.79S
CAVALIER       CLOUDY    70  68  94 S10G17    29.77R FOG
GRAFTON        CLOUDY    68  68 100 SE12      29.78R FOG
GWINNER        CLOUDY    72  72 100 SE17      29.78S
LANGDON        FOG       70  70 100 SE15      29.76F VSB 1/4
ROLLA          CLOUDY    72  72 100 S13G20    29.74S FOG
WALHALLA       FAIR      68  68 100 MISG      29.76R FOG
$$

CITY           SKY/WX    TMP DP  RH WIND       PRES   REMARKS
ABERDEEN       CLEAR     70  68  93 S10       29.75R
MOBRIDGE       CLEAR     69  64  84 SE10      29.69R
BUFFALO          N/A     62  53  72 E7        29.67R
RAPID CITY     CLEAR     61  47  59 SE3       29.79S
GLASGOW        PTCLDY    65  36  34 N17G23    29.74S
SIDNEY         CLEAR     68  45  42 NW18        N/A
WOLF POINT     PTCLDY    70  39  32 N24G35    29.68F
GLENDIVE       CLEAR     64  43  45 NW16      29.70R
MILES CITY     CLEAR     64  43  46 N9        29.72R
BAKER          CLEAR     55  48  77 SE3       29.72R
$$

CITY           SKY/WX    TMP DP  RH WIND       PRES   REMARKS
BILLINGS       CLOUDY    60  35  39 W14       29.91R
GREAT FALLS    PTCLDY    52  36  54 NE8       29.91R
REGINA         PTCLDY    50  45  81 N6        29.75R
ESTEVAN        MOCLDY    61  59  94 N9        29.67F
$$




USA.gov is the U.S. government's official web portal to all federal, state and local government web resources and services.